Location: Noyers
(47.2770°N, 1.4032°E)
Time: 00:29:15
(UTC+00:00)

Cosmos 2360 Rocket - Pass Details

Date: 15 May 2026
Orbit: 831 x 845 km, 71.0° (Epoch: 9 June)

Event Time Altitude Azimuth Distance (km) Brightness Sun altitude
Rises 20:01:03 0° 338° (NNW) 3,416 6.5 -6.1°
Reaches altitude 10° 20:03:56 10° 351° (N) 2,477 5.4 -6.5°
Maximum altitude 20:08:38 26° 47° (NE) 1,621 3.6 -7.1°
Drops below altitude 10° 20:13:18 10° 102° (ESE) 2,465 4.1 -7.7°
Enters shadow 20:14:04 - 107° (ESE) 2,704 4.3 -7.8°
